, AK

(GMT )
Kotzebue

Weather History for PAOT - February, 2013

Change the Weather History Date:

Saturday, February 16, 2013

  Actual Average Record
Temperature  
Mean Temperature -17 °F 0 °F  
Max Temperature -7 °F 7 °F 33 °F (2006)
Min Temperature -26 °F -7 °F -51 °F (1964)
Degree Days  
Heating Degree Days 82 65  
Month to date heating degree days 1053 1063  
Since 1 July heating degree days 9290 9467  
Cooling Degree Days 0 0  
Month to date cooling degree days 0 0  
Year to date cooling degree days 0 0  
Moisture  
Dew Point -21 °F    
Average Humidity 0    
Maximum Humidity 0    
Minimum Humidity 0    
Precipitation  
Precipitation 0.01 in 0.03 in 0.13 in (2009)
Month to date precipitation 0.92 0.36  
Year to date precipitation 2.04 0.98  
Snow  
Snow 0.10 in 0.30 in 6.00 in (1929)
Month to date snowfall 9.2 5.2  
Since 1 July snowfall 24.1 43.2  
Snow Depth 18.00 in    
Sea Level Pressure  
Sea Level Pressure 30.16 in    
Wind  
Wind Speed 4 mph (SW)    
Max Wind Speed 9 mph    
Max Gust Speed 10 mph    
Visibility 9 miles    
Events Snow    
T = Trace of Precipitation, MM = Missing Value Source: NWS Daily Summary

Daily Weather History Graph

Daily Weather History Graph

Search for Another Location

Airport or City:

Trip Planner

Search our weather history database for the weather conditions in past years. The results will help you decide how hot, cold, wet, or windy it might be!

Date:

Astronomy

Feb. 16, 2013 Rise Set
Actual Time 9:54 AM AKST 6:15 PM AKST
Civil Twilight 8:57 AM AKST 7:12 PM AKST
Nautical Twilight 7:55 AM AKST 8:15 PM AKST
Astronomical Twilight 6:54 AM AKST 9:16 PM AKST
Moon 9:54 AM AKST (2/16) 3:41 AM AKST (2/16)
Length of Visible Light 10h 15m
Length of Day
8h 20m
Waxing Crescent, 41% of the Moon is Illuminated
Feb 16
Waxing Crescent
Feb 17
First Quarter
Feb 25
Full
Mar 4
Last Quarter
Mar 11
New

Hourly Weather History & Observations

Time (AKST) Temp. Windchill Dew Point Humidity Pressure Visibility Wind Dir Wind Speed Gust Speed Precip Events Conditions
12:53 AM -8.0 °F -21.0 °F -13.0 °F 79% 30.09 in 9.0 mi NNE 5.8 mph - 0.00 in   Overcast
1:53 AM -8.0 °F - -13.0 °F 79% 30.10 in 8.0 mi Calm Calm - 0.01 in Snow Light Snow
3:23 AM -9.4 °F - -14.8 °F 77% 30.12 in 4.0 mi Calm Calm - 0.00 in Snow Light Snow
3:41 AM -9.4 °F - -14.8 °F 77% 30.12 in 9.0 mi Calm Calm - 0.00 in   Overcast
3:53 AM -9.9 °F - -14.1 °F 82% 30.12 in 10.0 mi Calm Calm - 0.00 in   Mostly Cloudy
4:53 AM -11.9 °F -23.8 °F -16.1 °F 82% 30.13 in 5.0 mi SW 4.6 mph - 0.00 in Snow Light Snow
5:36 AM -14.8 °F -30.8 °F -18.4 °F 84% 30.13 in 7.0 mi SW 6.9 mph - 0.00 in   Overcast
5:53 AM -15.0 °F -31.0 °F -18.9 °F 82% 30.14 in 10.0 mi SSW 6.9 mph - 0.00 in   Mostly Cloudy
6:53 AM -17.0 °F -33.4 °F -18.9 °F 91% 30.14 in 10.0 mi WSW 6.9 mph - N/A   Clear
7:53 AM -15.0 °F - -17.0 °F 91% 30.15 in 10.0 mi Calm Calm - N/A   Mostly Cloudy
8:53 AM -17.0 °F -29.7 °F -20.0 °F 86% 30.15 in 8.0 mi WSW 4.6 mph - 0.01 in   Mostly Cloudy
9:53 AM -18.0 °F -30.9 °F -20.9 °F 87% 30.16 in 10.0 mi SW 4.6 mph - 0.01 in   Partly Cloudy
10:21 AM -20.2 °F -30.9 °F -23.8 °F 83% 30.17 in 1.2 mi SSW 3.5 mph - N/A   Partly Cloudy
10:28 AM -20.2 °F -30.9 °F -23.8 °F 83% 30.17 in 10.0 mi SSW 3.5 mph - N/A   Partly Cloudy
10:53 AM -20.9 °F -31.7 °F -23.1 °F 90% 30.17 in 10.0 mi SW 3.5 mph - N/A   Partly Cloudy
11:53 AM -18.0 °F -33.0 °F -22.0 °F 82% 30.19 in 8.0 mi WSW 5.8 mph - 0.02 in   Clear
12:53 PM -20.0 °F -30.7 °F -24.0 °F 82% 30.19 in 9.0 mi WSW 3.5 mph - N/A Snow Light Snow
1:53 PM -20.0 °F -30.7 °F -25.1 °F 78% 30.20 in 8.0 mi WSW 3.5 mph - N/A Snow Light Snow
2:53 PM -20.0 °F -33.3 °F -26.0 °F 74% 30.20 in 9.0 mi SW 4.6 mph - 0.00 in   Scattered Clouds
3:53 PM -18.9 °F -32.0 °F -24.0 °F 78% 30.19 in 7.0 mi SSW 4.6 mph - N/A   Mostly Cloudy
4:53 PM -18.0 °F -30.9 °F -23.1 °F 78% 30.20 in 9.0 mi SW 4.6 mph - N/A   Overcast
5:53 PM -16.1 °F - -20.9 °F 79% 30.19 in 7.0 mi Calm Calm - 0.01 in   Overcast
6:53 PM -17.0 °F -29.7 °F -22.0 °F 78% 30.19 in 10.0 mi SSW 4.6 mph - N/A   Mostly Cloudy
7:53 PM -18.0 °F -34.7 °F -23.1 °F 78% 30.19 in 10.0 mi SW 6.9 mph - N/A   Clear
8:53 PM -20.9 °F -38.1 °F -24.0 °F 86% 30.19 in 10.0 mi WSW 6.9 mph - N/A   Clear
9:53 PM -23.1 °F -36.8 °F -29.0 °F 74% 30.20 in 10.0 mi SW 4.6 mph - N/A   Clear
10:53 PM -25.1 °F - -27.9 °F 86% 30.20 in 10.0 mi Calm Calm - 0.01 in   Clear
11:53 PM -22.0 °F - -25.1 °F 86% 30.21 in 10.0 mi Calm Calm - 0.01 in   Clear